EW9551 Weather Reports


Display with metric or nautical units.
time (UTC)temp
F
wind
direction
speed
MPH
gust
MPH
rain 1hr
in
rain 24hr
in
rain mn
in
humidity
%
barometer
mb
20260506010626 51 135 0.0 0.0 0.00 0.39 0.02 95 968.3
20260506005006 51 132 0.0 0.0 0.01 0.45 0.02 94 968.3
20260506002008 51 133 0.0 0.0 0.01 0.46 0.01 94 969.0
20260505233622 51 133 0.0 0.0 0.01 0.48 0.00 94 969.3
20260505230621 51 132 0.0 0.0 0.00 0.49 0.00 94 969.5
20260505223618 51 0 0.0 0.0 0.00 0.54 0.00 93 969.5
20260505220619 51 143 0.0 0.0 0.04 0.57 0.00 92 969.9
20260505213619 51 242 0.0 0.0 0.06 0.64 0.58 92 970.2
20260505210619 51 0 0.0 1.0 0.04 0.64 0.55 91 971.0
20260505203620 52 0 0.0 6.0 0.08 0.63 0.53 90 970.6
20260505200616 52 0 0.0 12.0 0.09 0.62 0.50 88 969.7
20260505193618 54 0 1.0 21.0 0.03 0.56 0.44 85 969.5
20260505190614 56 0 0.0 10.0 0.00 0.53 0.42 85 968.4
20260505183615 57 271 0.0 5.0 0.00 0.53 0.42 84 968.3
20260505182001 58 0 0.0 1.0 0.00 0.53 0.42 84 968.0
20260505173616 58 0 0.0 0.0 0.00 0.53 0.42 84 968.4
20260505170614 59 0 0.0 0.0 0.00 0.54 0.42 83 968.2
20260505163615 60 0 0.0 0.0 0.00 0.55 0.42 81 968.6
20260505160615 61 232 0.0 0.0 0.00 0.56 0.42 79 968.8
20260505151957 62 0 0.0 3.0 0.00 0.57 0.42 77 969.0
20260505140607 64 0 0.0 0.0 0.00 0.59 0.42 79 968.9
20260505123604 65 221 0.0 13.0 0.00 0.62 0.42 78 968.9
20260505120601 65 0 0.0 5.0 0.00 0.65 0.42 82 968.9
20260505113603 64 0 0.0 3.0 0.00 0.68 0.42 82 969.2
20260505110616 63 0 0.0 11.0 0.00 0.70 0.42 90 969.4
20260505100559 58 0 0.0 5.0 0.00 0.78 0.42 97 969.6
20260505093556 56 176 0.0 6.0 0.02 0.81 0.42 97 969.6
20260505090556 55 0 0.0 5.0 0.02 0.84 0.42 97 969.5
20260505083554 54 0 0.0 2.0 0.02 0.85 0.40 97 969.4
20260505080553 54 0 0.0 0.0 0.01 0.87 0.39 97 969.2
20260505073552 54 0 0.0 0.0 0.01 0.87 0.39 97 969.1
20260505070549 53 0 0.0 0.0 0.01 0.87 0.39 97 969.0
20260505063545 53 0 0.0 0.0 0.02 0.86 0.38 96 968.9
20260505060547 53 0 0.0 0.0 0.03 0.87 0.38 96 969.0
20260505053545 52 140 0.0 0.0 0.02 0.86 0.35 96 968.9
20260505050543 52 0 0.0 0.0 0.01 0.86 0.35 96 968.8
20260505033542 52 0 0.0 0.0 0.04 0.83 0.31 96 969.4
20260505030541 52 0 0.0 0.0 0.03 0.80 0.29 96 969.4
20260505023541 52 0 0.0 0.0 0.04 0.80 0.28 96 969.6
20260505021927 52 0 0.0 0.0 0.05 0.77 0.26 96 970.1
20260505013537 52 134 0.0 0.0 0.09 0.76 0.24 96 970.2